Time,TemperatureF,DewpointF,PressureIn,WindDirection,WindDirectionDegrees,WindSpeedMPH,WindSpeedGustMPH,Humidity,HourlyPrecipIn,Conditions,Clouds,dailyrainin,SoftwareType,DateUTC
2013-03-06 00:02:00,30.0,19.0,30.28,NNW,340,8.0,-999.0,63,-99.99,,,-99.99,,2013-03-06 06:02:00,
2013-03-06 00:11:00,30.0,21.0,30.28,North,350,10.0,15.0,68,-99.99,,,-99.99,,2013-03-06 06:11:00,
2013-03-06 00:22:00,30.0,21.0,30.28,North,350,10.0,15.0,68,-99.99,,,-99.99,,2013-03-06 06:22:00,
2013-03-06 00:32:00,28.0,19.0,30.29,North,350,9.0,-999.0,68,-99.99,,,-99.99,,2013-03-06 06:32:00,
2013-03-06 00:42:00,28.0,19.0,30.29,North,350,9.0,-999.0,68,-99.99,,,-99.99,,2013-03-06 06:42:00,
2013-03-06 00:52:00,28.0,19.0,30.29,North,350,8.0,-999.0,68,-99.99,,,-99.99,,2013-03-06 06:52:00,
2013-03-06 01:01:00,28.0,19.0,30.29,North,350,8.0,-999.0,68,-99.99,,,-99.99,,2013-03-06 07:01:00,
2013-03-06 01:11:00,28.0,19.0,30.29,North,350,8.0,-999.0,68,-99.99,,,-99.99,,2013-03-06 07:11:00,
2013-03-06 01:22:00,28.0,19.0,30.29,North,350,8.0,-999.0,68,-99.99,,,-99.99,,2013-03-06 07:22:00,
2013-03-06 01:32:00,28.0,19.0,30.29,North,350,8.0,-999.0,68,-99.99,,,-99.99,,2013-03-06 07:32:00,
2013-03-06 01:52:00,28.0,18.0,30.30,North,350,7.0,-999.0,63,-99.99,,,-99.99,,2013-03-06 07:52:00,
2013-03-06 02:01:00,28.0,18.0,30.30,North,350,7.0,-999.0,63,-99.99,,,-99.99,,2013-03-06 08:01:00,
2013-03-06 02:11:00,28.0,18.0,30.30,North,350,7.0,-999.0,63,-99.99,,,-99.99,,2013-03-06 08:11:00,
2013-03-06 02:21:00,28.0,18.0,30.30,North,350,7.0,-999.0,63,-99.99,,,-99.99,,2013-03-06 08:21:00,
2013-03-06 02:32:00,28.0,18.0,30.30,North,350,7.0,-999.0,63,-99.99,,,-99.99,,2013-03-06 08:32:00,
2013-03-06 02:52:00,27.0,18.0,30.29,North,350,15.0,-999.0,68,-99.99,,,-99.99,,2013-03-06 08:52:00,
2013-03-06 03:01:00,27.0,18.0,30.29,North,350,15.0,-999.0,68,-99.99,,,-99.99,,2013-03-06 09:01:00,
2013-03-06 03:12:00,27.0,18.0,30.30,North,350,10.0,16.0,68,-99.99,,,-99.99,,2013-03-06 09:12:00,
2013-03-06 03:21:00,27.0,18.0,30.30,North,350,10.0,16.0,68,-99.99,,,-99.99,,2013-03-06 09:21:00,
2013-03-06 03:31:00,27.0,18.0,30.30,North,350,7.0,-999.0,68,-99.99,,,-99.99,,2013-03-06 09:31:00,
2013-03-06 03:42:00,27.0,18.0,30.30,North,350,7.0,-999.0,68,-99.99,,,-99.99,,2013-03-06 09:42:00,
2013-03-06 03:51:00,27.0,18.0,30.30,North,350,7.0,-999.0,68,-99.99,,,-99.99,,2013-03-06 09:51:00,
2013-03-06 04:01:00,27.0,18.0,30.30,North,350,7.0,-999.0,68,-99.99,,,-99.99,,2013-03-06 10:01:00,
2013-03-06 04:11:00,25.0,19.0,30.31,NNW,340,9.0,-999.0,79,-99.99,,,-99.99,,2013-03-06 10:11:00,
2013-03-06 04:22:00,25.0,19.0,30.31,NNW,340,9.0,-999.0,79,-99.99,,,-99.99,,2013-03-06 10:22:00,
2013-03-06 04:32:00,25.0,19.0,30.31,North,350,6.0,-999.0,79,-99.99,,,-99.99,,2013-03-06 10:32:00,
2013-03-06 04:42:00,25.0,19.0,30.31,North,350,6.0,-999.0,79,-99.99,,,-99.99,,2013-03-06 10:42:00,
2013-03-06 04:51:00,25.0,19.0,30.31,North,350,6.0,-999.0,79,-99.99,,,-99.99,,2013-03-06 10:51:00,
2013-03-06 05:02:00,25.0,19.0,30.31,North,350,6.0,-999.0,79,-99.99,,,-99.99,,2013-03-06 11:02:00,
2013-03-06 05:11:00,25.0,18.0,30.33,North,0,0.0,-999.0,73,-99.99,,,-99.99,,2013-03-06 11:11:00,
2013-03-06 05:22:00,25.0,18.0,30.33,North,0,0.0,-999.0,73,-99.99,,,-99.99,,2013-03-06 11:22:00,
2013-03-06 05:32:00,25.0,19.0,30.34,North,0,0.0,-999.0,79,-99.99,,,-99.99,,2013-03-06 11:32:00,
2013-03-06 05:42:00,25.0,19.0,30.34,North,0,0.0,-999.0,79,-99.99,,,-99.99,,2013-03-06 11:42:00,
2013-03-06 05:52:00,23.0,18.0,30.34,North,0,0.0,-999.0,79,-99.99,,,-99.99,,2013-03-06 11:52:00,
2013-03-06 06:02:00,23.0,18.0,30.34,North,0,0.0,-999.0,79,-99.99,,,-99.99,,2013-03-06 12:02:00,
2013-03-06 06:11:00,23.0,18.0,30.34,North,0,0.0,-999.0,79,-99.99,,,-99.99,,2013-03-06 12:11:00,
2013-03-06 06:21:00,23.0,18.0,30.34,North,0,0.0,-999.0,79,-99.99,,,-99.99,,2013-03-06 12:21:00,
2013-03-06 06:32:00,21.0,16.0,30.34,North,0,0.0,-999.0,79,-99.99,,,-99.99,,2013-03-06 12:32:00,
2013-03-06 06:43:00,21.0,16.0,30.34,North,0,0.0,-999.0,79,-99.99,,,-99.99,,2013-03-06 12:43:00,
2013-03-06 06:52:00,21.0,18.0,30.34,North,350,5.0,-999.0,85,-99.99,,,-99.99,,2013-03-06 12:52:00,
2013-03-06 07:02:00,21.0,18.0,30.34,North,350,5.0,-999.0,85,-99.99,,,-99.99,,2013-03-06 13:02:00,
2013-03-06 07:11:00,21.0,16.0,30.34,North,0,0.0,-999.0,79,-99.99,,,-99.99,,2013-03-06 13:11:00,
2013-03-06 07:22:00,21.0,16.0,30.34,North,0,0.0,-999.0,79,-99.99,,,-99.99,,2013-03-06 13:22:00,
2013-03-06 07:32:00,21.0,16.0,30.34,North,0,0.0,-999.0,79,-99.99,,,-99.99,,2013-03-06 13:32:00,
2013-03-06 07:42:00,21.0,16.0,30.34,North,0,0.0,-999.0,79,-99.99,,,-99.99,,2013-03-06 13:42:00,
2013-03-06 07:52:00,25.0,19.0,30.34,North,350,7.0,-999.0,79,-99.99,,,-99.99,,2013-03-06 13:52:00,
2013-03-06 08:01:00,25.0,19.0,30.34,North,350,7.0,-999.0,79,-99.99,,,-99.99,,2013-03-06 14:01:00,
2013-03-06 08:11:00,25.0,19.0,30.35,NNE,20,8.0,-999.0,79,-99.99,,,-99.99,,2013-03-06 14:11:00,
2013-03-06 08:22:00,25.0,19.0,30.35,NNE,20,8.0,-999.0,79,-99.99,,,-99.99,,2013-03-06 14:22:00,
2013-03-06 08:32:00,27.0,19.0,30.35,North,10,10.0,15.0,73,-99.99,,,-99.99,,2013-03-06 14:32:00,
2013-03-06 08:42:00,27.0,19.0,30.35,North,10,10.0,15.0,73,-99.99,,,-99.99,,2013-03-06 14:42:00,
2013-03-06 08:52:00,27.0,19.0,30.35,NNE,20,12.0,16.0,73,-99.99,,,-99.99,,2013-03-06 14:52:00,
2013-03-06 09:02:00,27.0,19.0,30.35,NNE,20,12.0,16.0,73,-99.99,,,-99.99,,2013-03-06 15:02:00,
2013-03-06 09:11:00,27.0,19.0,30.35,NNE,30,14.0,-999.0,73,-99.99,,,-99.99,,2013-03-06 15:11:00,
2013-03-06 09:21:00,27.0,19.0,30.35,NNE,30,14.0,-999.0,73,-99.99,,,-99.99,,2013-03-06 15:21:00,
2013-03-06 09:32:00,27.0,19.0,30.35,NNE,30,14.0,-999.0,73,-99.99,,,-99.99,,2013-03-06 15:32:00,
2013-03-06 09:42:00,27.0,19.0,30.35,NNE,30,14.0,-999.0,73,-99.99,,,-99.99,,2013-03-06 15:42:00,
2013-03-06 09:52:00,27.0,19.0,30.35,NNE,30,14.0,-999.0,73,-99.99,,,-99.99,,2013-03-06 15:52:00,
2013-03-06 10:11:00,30.0,21.0,30.36,ENE,60,5.0,-999.0,68,-99.99,,,-99.99,,2013-03-06 16:11:00,
2013-03-06 10:21:00,30.0,21.0,30.36,ENE,60,5.0,-999.0,68,-99.99,,,-99.99,,2013-03-06 16:21:00,
2013-03-06 10:32:00,30.0,21.0,30.36,NE,50,5.0,-999.0,68,-99.99,,,-99.99,,2013-03-06 16:32:00,
2013-03-06 10:42:00,30.0,21.0,30.36,NE,50,5.0,-999.0,68,-99.99,,,-99.99,,2013-03-06 16:42:00,
2013-03-06 10:52:00,30.0,21.0,30.36,NE,50,5.0,-999.0,68,-99.99,,,-99.99,,2013-03-06 16:52:00,
2013-03-06 11:01:00,30.0,21.0,30.36,NE,50,5.0,-999.0,68,-99.99,,,-99.99,,2013-03-06 17:01:00,
2013-03-06 11:11:00,30.0,21.0,30.36,NE,50,5.0,-999.0,68,-99.99,,,-99.99,,2013-03-06 17:11:00,
2013-03-06 11:32:00,36.0,23.0,30.37,North,0,0.0,-999.0,59,-99.99,,,-99.99,,2013-03-06 17:32:00,
2013-03-06 11:42:00,36.0,23.0,30.37,North,0,0.0,-999.0,59,-99.99,,,-99.99,,2013-03-06 17:42:00,
2013-03-06 11:53:00,36.0,21.0,30.36,North,0,0.0,-999.0,55,-99.99,,,-99.99,,2013-03-06 17:53:00,
2013-03-06 12:02:00,36.0,21.0,30.36,North,0,0.0,-999.0,55,-99.99,,,-99.99,,2013-03-06 18:02:00,
2013-03-06 12:28:00,36.0,21.0,30.36,North,0,0.0,-999.0,55,-99.99,,,-99.99,,2013-03-06 18:28:00,
2013-03-06 12:42:00,37.0,23.0,30.35,North,0,0.0,-999.0,55,-99.99,,,-99.99,,2013-03-06 18:42:00,
2013-03-06 12:52:00,37.0,23.0,30.35,North,0,0.0,-999.0,55,-99.99,,,-99.99,,2013-03-06 18:52:00,
2013-03-06 13:02:00,37.0,23.0,30.35,North,0,0.0,-999.0,55,-99.99,,,-99.99,,2013-03-06 19:02:00,
2013-03-06 13:11:00,37.0,23.0,30.35,North,0,0.0,-999.0,55,-99.99,,,-99.99,,2013-03-06 19:11:00,
2013-03-06 13:53:00,41.0,25.0,30.33,North,0,0.0,-999.0,52,-99.99,,,-99.99,,2013-03-06 19:53:00,
2013-03-06 14:02:00,41.0,25.0,30.33,North,0,0.0,-999.0,52,-99.99,,,-99.99,,2013-03-06 20:02:00,
2013-03-06 14:12:00,43.0,25.0,30.31,North,0,0.0,-999.0,48,-99.99,,,-99.99,,2013-03-06 20:12:00,
2013-03-06 14:22:00,43.0,25.0,30.31,North,0,0.0,-999.0,48,-99.99,,,-99.99,,2013-03-06 20:22:00,
2013-03-06 14:32:00,43.0,25.0,30.30,North,0,0.0,-999.0,48,-99.99,,,-99.99,,2013-03-06 20:32:00,
2013-03-06 14:42:00,43.0,25.0,30.30,North,0,0.0,-999.0,48,-99.99,,,-99.99,,2013-03-06 20:42:00,
2013-03-06 14:52:00,45.0,27.0,30.30,North,0,0.0,-999.0,48,-99.99,,,-99.99,,2013-03-06 20:52:00,
2013-03-06 15:02:00,45.0,27.0,30.30,North,0,0.0,-999.0,48,-99.99,,,-99.99,,2013-03-06 21:02:00,
2013-03-06 15:11:00,45.0,27.0,30.30,North,0,0.0,-999.0,48,-99.99,,,-99.99,,2013-03-06 21:11:00,
2013-03-06 15:22:00,45.0,27.0,30.30,North,0,0.0,-999.0,48,-99.99,,,-99.99,,2013-03-06 21:22:00,
2013-03-06 15:32:00,45.0,27.0,30.29,North,0,0.0,-999.0,48,-99.99,,,-99.99,,2013-03-06 21:32:00,
2013-03-06 15:42:00,45.0,27.0,30.29,North,0,0.0,-999.0,48,-99.99,,,-99.99,,2013-03-06 21:42:00,
2013-03-06 15:52:00,45.0,27.0,30.29,North,0,0.0,-999.0,48,-99.99,,,-99.99,,2013-03-06 21:52:00,
2013-03-06 16:01:00,45.0,27.0,30.29,North,0,0.0,-999.0,48,-99.99,,,-99.99,,2013-03-06 22:01:00,
2013-03-06 16:11:00,43.0,25.0,30.28,North,0,0.0,-999.0,48,-99.99,,,-99.99,,2013-03-06 22:11:00,
2013-03-06 16:22:00,43.0,25.0,30.28,North,0,0.0,-999.0,48,-99.99,,,-99.99,,2013-03-06 22:22:00,
2013-03-06 16:32:00,43.0,27.0,30.28,North,0,0.0,-999.0,52,-99.99,,,-99.99,,2013-03-06 22:32:00,
2013-03-06 16:42:00,43.0,27.0,30.28,North,0,0.0,-999.0,52,-99.99,,,-99.99,,2013-03-06 22:42:00,
2013-03-06 16:51:00,43.0,27.0,30.28,North,0,0.0,-999.0,52,-99.99,,,-99.99,,2013-03-06 22:51:00,
2013-03-06 17:01:00,43.0,27.0,30.28,North,0,0.0,-999.0,52,-99.99,,,-99.99,,2013-03-06 23:01:00,
2013-03-06 17:11:00,45.0,27.0,30.28,North,0,0.0,-999.0,48,-99.99,,,-99.99,,2013-03-06 23:11:00,
2013-03-06 17:21:00,45.0,27.0,30.28,North,0,0.0,-999.0,48,-99.99,,,-99.99,,2013-03-06 23:21:00,
2013-03-06 17:32:00,43.0,27.0,30.27,North,0,0.0,-999.0,52,-99.99,,,-99.99,,2013-03-06 23:32:00,
2013-03-06 17:42:00,43.0,27.0,30.27,North,0,0.0,-999.0,52,-99.99,,,-99.99,,2013-03-06 23:42:00,
2013-03-06 17:52:00,43.0,27.0,30.27,North,0,0.0,-999.0,52,-99.99,,,-99.99,,2013-03-06 23:52:00,
2013-03-06 18:01:00,43.0,27.0,30.27,North,0,0.0,-999.0,52,-99.99,,,-99.99,,2013-03-07 00:01:00,
2013-03-06 18:11:00,43.0,27.0,30.27,North,0,0.0,-999.0,52,-99.99,,,-99.99,,2013-03-07 00:11:00,
2013-03-06 18:21:00,43.0,27.0,30.27,North,0,0.0,-999.0,52,-99.99,,,-99.99,,2013-03-07 00:21:00,
2013-03-06 18:32:00,41.0,27.0,30.25,North,0,0.0,-999.0,56,-99.99,,,-99.99,,2013-03-07 00:32:00,
2013-03-06 18:42:00,41.0,27.0,30.25,North,0,0.0,-999.0,56,-99.99,,,-99.99,,2013-03-07 00:42:00,
2013-03-06 18:52:00,39.0,27.0,30.25,North,0,0.0,-999.0,60,-99.99,,,-99.99,,2013-03-07 00:52:00,
2013-03-06 19:01:00,39.0,27.0,30.25,North,0,0.0,-999.0,60,-99.99,,,-99.99,,2013-03-07 01:01:00,
2013-03-06 19:11:00,39.0,27.0,30.25,North,0,0.0,-999.0,60,-99.99,,,-99.99,,2013-03-07 01:11:00,
2013-03-06 19:21:00,39.0,27.0,30.25,North,0,0.0,-999.0,60,-99.99,,,-99.99,,2013-03-07 01:21:00,
2013-03-06 19:31:00,39.0,27.0,30.25,North,0,0.0,-999.0,60,-99.99,,,-99.99,,2013-03-07 01:31:00,
2013-03-06 19:42:00,39.0,27.0,30.25,North,0,0.0,-999.0,60,-99.99,,,-99.99,,2013-03-07 01:42:00,
2013-03-06 19:51:00,37.0,27.0,30.25,North,0,0.0,-999.0,64,-99.99,,,-99.99,,2013-03-07 01:51:00,
2013-03-06 20:01:00,37.0,27.0,30.25,North,0,0.0,-999.0,64,-99.99,,,-99.99,,2013-03-07 02:01:00,
2013-03-06 20:11:00,37.0,27.0,30.25,North,0,0.0,-999.0,64,-99.99,,,-99.99,,2013-03-07 02:11:00,
2013-03-06 20:21:00,37.0,27.0,30.25,North,0,0.0,-999.0,64,-99.99,,,-99.99,,2013-03-07 02:21:00,
2013-03-06 20:32:00,37.0,27.0,30.24,North,350,5.0,-999.0,64,-99.99,,,-99.99,,2013-03-07 02:32:00,
2013-03-06 20:41:00,37.0,27.0,30.24,North,350,5.0,-999.0,64,-99.99,,,-99.99,,2013-03-07 02:41:00,
2013-03-06 20:51:00,37.0,27.0,30.24,North,350,5.0,-999.0,64,-99.99,,,-99.99,,2013-03-07 02:51:00,
2013-03-06 21:02:00,36.0,27.0,30.24,North,350,5.0,-999.0,69,-99.99,,,-99.99,,2013-03-07 03:02:00,
2013-03-06 21:11:00,36.0,27.0,30.24,North,350,5.0,-999.0,69,-99.99,,,-99.99,,2013-03-07 03:11:00,
2013-03-06 21:21:00,36.0,27.0,30.24,North,350,5.0,-999.0,69,-99.99,,,-99.99,,2013-03-07 03:21:00,
2013-03-06 21:32:00,36.0,27.0,30.24,North,350,5.0,-999.0,69,-99.99,,,-99.99,,2013-03-07 03:32:00,
2013-03-06 22:11:00,36.0,27.0,30.23,NE,50,6.0,-999.0,69,-99.99,,,-99.99,,2013-03-07 04:11:00,
2013-03-06 22:22:00,36.0,27.0,30.23,NE,50,6.0,-999.0,69,-99.99,,,-99.99,,2013-03-07 04:22:00,
2013-03-06 22:32:00,36.0,27.0,30.23,NE,50,5.0,-999.0,69,-99.99,,,-99.99,,2013-03-07 04:32:00,
2013-03-06 22:42:00,36.0,27.0,30.23,NE,50,5.0,-999.0,69,-99.99,,,-99.99,,2013-03-07 04:42:00,
2013-03-06 22:51:00,36.0,27.0,30.23,NE,50,5.0,-999.0,69,-99.99,,,-99.99,,2013-03-07 04:51:00,
2013-03-06 23:02:00,36.0,27.0,30.23,NE,50,5.0,-999.0,69,-99.99,,,-99.99,,2013-03-07 05:02:00,
2013-03-06 23:12:00,36.0,27.0,30.23,North,0,0.0,-999.0,69,-99.99,,,-99.99,,2013-03-07 05:12:00,
2013-03-06 23:22:00,36.0,27.0,30.23,North,0,0.0,-999.0,69,-99.99,,,-99.99,,2013-03-07 05:22:00,
2013-03-06 23:32:00,36.0,27.0,30.22,NE,50,5.0,-999.0,69,-99.99,,,-99.99,,2013-03-07 05:32:00,
2013-03-06 23:42:00,36.0,27.0,30.22,NE,50,5.0,-999.0,69,-99.99,,,-99.99,,2013-03-07 05:42:00,
2013-03-06 23:52:00,36.0,27.0,30.22,NE,50,5.0,-999.0,69,-99.99,,,-99.99,,2013-03-07 05:52:00,